Location: Grisols
(45.0093°N, 3.1167°E)
Time: 23:25:40
(UTC+00:00)

CZ-2D R/B - Pass Details

Date: 21 October 2019
Orbit: 522 x 539 km, 97.4° (Epoch: 22 November)

Event Time Altitude Azimuth Distance (km) Brightness Sun altitude
Exits shadow 17:51:50 - 140° (SE) 2,462 6.3 -11.1°
Reaches altitude 10° 17:53:36 10° 131° (SE) 1,784 5.5 -11.4°
Maximum altitude 17:56:59 30° 69° (ENE) 984 4.1 -12.0°
Drops below altitude 10° 18:00:24 10° 8° (N) 1,804 5.8 -12.6°
Sets 18:02:41 0° 358° (N) 2,703 6.9 -13.0°
